Printer-friendly version

IAU Minor Planet Center

Minor Planet Center

MPEC 2008-G04 : 2008 FJ7

The following Minor Planet Electronic Circular may be linked-to from your own Web pages, but must not otherwise be redistributed electronically.


Read MPEC 2008-G03 Read MPEC 2008-G05


M.P.E.C. 2008-G04                                Issued 2008 Apr. 1, 14:16 UT

     The Minor Planet Electronic Circulars contain information on unusual
         minor planets and routine data on comets.  They are published
   on behalf of Commission 20 of the International Astronomical Union by the
          Minor Planet Center, Smithsonian Astrophysical Observatory,
                          Cambridge, MA 02138, U.S.A.

             Prepared using the Tamkin Foundation Computer Network

                              MPC@CFA.HARVARD.EDU
          URL http://www.cfa.harvard.edu/iau/mpc.html  ISSN 1523-6714

                                   2008 FJ7

Observations:
     K08F07J* C2008 03 31.38037 13 26 38.11 +01 45 38.4          20.2 V EG004G96
     K08F07J  C2008 03 31.38575 13 26 35.80 +01 45 31.8          19.9 V EG004G96
     K08F07J  C2008 03 31.39110 13 26 33.46 +01 45 26.1          20.2 V EG004G96
     K08F07J  C2008 03 31.39644 13 26 31.20 +01 45 20.0          20.1 V EG004G96
     K08F07J  C2008 03 31.42409 13 26 19.46 +01 44 48.3          20.2 V EG004G96
     K08F07J  C2008 03 31.42808 13 26 17.77 +01 44 43.8          20.1 V EG004G96
     K08F07J  C2008 03 31.43204 13 26 16.11 +01 44 39.3          20.2 V EG004G96
     K08F07J  C2008 03 31.43598 13 26 14.46 +01 44 34.6          20.2 V EG004G96
     K08F07J  C2008 04 01.32038 13 21 21.85 +01 29 02.4          20.3 V EG004G96
     K08F07J  C2008 04 01.32655 13 21 19.54 +01 28 56.6          19.9 V EG004G96
     K08F07J  C2008 04 01.33272 13 21 17.24 +01 28 50.3          20.4 V EG004G96
     K08F07J  C2008 04 01.33882 13 21 14.97 +01 28 44.4          20.1 V EG004G96

Observer details:
G96 Mt. Lemmon Survey.  Observer A. Boattini.  Measurers E. C. Beshore,
    A. Boattini, G. J. Garradd, A. R. Gibbs, A. D. Grauer, R. E. Hill,
    R. A. Kowalski, S. M. Larson, R. H. McNaught.  1.5-m reflector + CCD.

Orbital elements:
2008 FJ7                                                 Earth MOID = 0.0079 AU
Epoch 2008 May 14.0 TT = JDT 2454600.5                  MPC
M  93.97461              (2000.0)            P               Q
n   0.81561988     Peri.  357.17345     -0.16910734     -0.98556609
a   1.1345166      Node   102.56238     +0.90442657     -0.15835497
e   0.2920006      Incl.    0.46293     +0.39168265     -0.05985972
P   1.21           H   25.8           G   0.15           U   9
Residuals in seconds of arc
080331 G96  0.1+  0.0     080331 G96  0.1+  0.1+    080401 G96  0.0   0.1-
080331 G96  0.2+  0.4-    080331 G96  0.0   0.1+    080401 G96  0.1-  0.2+
080331 G96  0.4-  0.0     080331 G96  0.0   0.2+    080401 G96  0.0   0.1-
080331 G96  0.0   0.0     080331 G96  0.0   0.0     080401 G96  0.1+  0.0

Ephemeris:
2008 FJ7                 a,e,i = 1.13, 0.29, 0                   q = 0.8032
Date    TT    R. A. (2000) Decl.     Delta      r     Elong.  Phase     V
2008 03 25    14 51.64   +05 56.7    0.0223   1.015   140.6    38.6    19.1
2008 03 26    14 27.67   +04 50.0    0.0259   1.020   147.5    31.7    19.3
2008 03 27    14 09.73   +03 57.9    0.0298   1.024   152.8    26.4    19.4
2008 03 28    13 55.94   +03 16.8    0.0338   1.029   157.1    22.2    19.6
2008 03 29    13 45.07   +02 43.9    0.0379   1.034   160.6    18.7    19.7
2008 03 30    13 36.30   +02 17.0    0.0422   1.039   163.6    15.8    19.9
2008 03 31    13 29.09   +01 54.7    0.0465   1.044   166.0    13.4    20.0
2008 04 01    13 23.07   +01 35.9    0.0508   1.049   168.1    11.3    20.1
2008 04 02    13 17.98   +01 19.8    0.0552   1.054   169.9     9.6    20.3
2008 04 03    13 13.62   +01 05.8    0.0597   1.059   171.2     8.3    20.4
2008 04 04    13 09.84   +00 53.5    0.0642   1.064   172.2     7.3    20.5
2008 04 05    13 06.55   +00 42.5    0.0688   1.069   172.8     6.7    20.6
2008 04 06    13 03.67   +00 32.6    0.0734   1.074   172.9     6.6    20.8
2008 04 07    13 01.12   +00 23.6    0.0781   1.079   172.7     6.8    20.9
2008 04 08    12 58.87   +00 15.2    0.0828   1.083   172.2     7.2    21.1
2008 04 09    12 56.87   +00 07.4    0.0876   1.088   171.4     7.9    21.3
2008 04 10    12 55.09   +00 00.1    0.0925   1.093   170.6     8.6    21.4
2008 04 11    12 53.51   -00 06.9    0.0973   1.098   169.6     9.5    21.6
2008 04 12    12 52.09   -00 13.5    0.102    1.103   168.6    10.3    21.7
2008 04 13    12 50.84   -00 20.0    0.107    1.108   167.6    11.2    21.9
2008 04 14    12 49.72   -00 26.2    0.112    1.113   166.5    12.1    22.0

Timothy B. Spahr             (C) Copyright 2008 MPC           M.P.E.C. 2008-G04

Read MPEC 2008-G03 Read MPEC 2008-G05


Our Web policy. Index to the CBAT/MPC/ICQ pages.


Valid HTML 4.01!